Tacoma, WA

10:40 AM PDT on May 27, 2018 (GMT -0700)
McChord Air Force Base

Weather History for KTCM - January, 2013

Change the Weather History Date:

Wednesday, January 16, 2013

  Actual Average Record
Temperature  
Mean Temperature 30 °F -  
Max Temperature 40 °F 44 °F 55 °F (1974)
Min Temperature 21 °F 33 °F 19 °F (1993)
Degree Days  
Heating Degree Days 34    
Moisture  
Dew Point 26 °F    
Average Humidity 98    
Maximum Humidity 100    
Minimum Humidity 79    
Precipitation  
Precipitation 0.00 in - - ()
Sea Level Pressure  
Sea Level Pressure 30.60 in    
Wind  
Wind Speed 1 mph (South)    
Max Wind Speed 7 mph    
Max Gust Speed -    
Visibility 3 miles    
Events Fog    
Averages and records for this station are not official NWS values.
T = Trace of Precipitation, MM = Missing Value Source: NWS Daily Summary

Daily Weather History Graph

Daily Weather History Graph

Search for Another Location

Airport or City:

Astronomy

Jan. 16, 2013 Rise Set
Actual Time 7:50 AM PST 4:49 PM PST
Civil Twilight 7:16 AM PST 5:23 PM PST
Nautical Twilight 6:38 AM PST 6:01 PM PST
Astronomical Twilight 6:02 AM PST 6:37 PM PST
Moon 10:04 AM PST (1/16) 11:14 PM PST (1/16)
Length of Visible Light 10h 06m
Length of Day
8h 58m
Waxing Crescent, 29% of the Moon is Illuminated
Jan 16
Waxing Crescent
Jan 18
First Quarter
Jan 26
Full
Feb 3
Last Quarter
Feb 9
New

Hourly Weather History & Observations

Time (PST) Temp. Windchill Dew Point Humidity Pressure Visibility Wind Dir Wind Speed Gust Speed Precip Events Conditions
12:58 AM 23.0 °F - 22.3 °F 97% 30.69 in 10.0 mi Calm Calm - N/A   Clear
1:58 AM 22.8 °F - 22.1 °F 97% 30.69 in 10.0 mi Calm Calm - N/A   Clear
2:58 AM 24.6 °F 20.3 °F 24.3 °F 99% 30.69 in 10.0 mi SW 3.5 mph - N/A   Clear
3:58 AM 23.2 °F - 22.6 °F 98% 30.69 in 10.0 mi SSE 1.2 mph - N/A   Clear
4:58 AM 22.3 °F - 21.7 °F 98% 30.68 in 10.0 mi South 2.3 mph - N/A   Clear
5:43 AM 21.2 °F - 21.2 °F 100% 30.64 in 1.5 mi Calm Calm - N/A   Clear
5:53 AM 21.2 °F - 21.2 °F 100% 30.64 in 3.0 mi Calm Calm - N/A   Clear
5:58 AM 21.9 °F - 21.4 °F 98% 30.67 in 5.0 mi Calm Calm - N/A   Clear
6:12 AM 21.2 °F - 21.2 °F 100% 30.64 in 5.0 mi East 1.2 mph - N/A   Partly Cloudy
6:23 AM 21.2 °F - 21.2 °F 100% 30.64 in 6.0 mi Calm Calm - N/A   Mostly Cloudy
6:39 AM 21.2 °F - 21.2 °F 100% 30.64 in 8.0 mi Calm Calm - N/A   Scattered Clouds
6:58 AM 21.6 °F - 20.8 °F 97% 30.66 in 7.0 mi SSE 2.3 mph - N/A   Partly Cloudy
7:03 AM 21.2 °F - 21.2 °F 100% 30.63 in 2.5 mi SSE 1.2 mph - N/A   Partly Cloudy
7:08 AM 21.2 °F - 21.2 °F 100% 30.63 in 1.0 mi SSE 2.3 mph - N/A   Mist
7:13 AM 21.2 °F - 21.2 °F 100% 30.63 in 0.5 mi SSE 1.2 mph - N/A Fog Light Freezing Fog
7:18 AM 21.2 °F - 21.2 °F 100% 30.63 in 0.5 mi SSE 1.2 mph - N/A Fog Light Freezing Fog
7:24 AM 23.0 °F - 21.2 °F 93% 30.63 in 0.5 mi South 2.3 mph - N/A Fog Light Freezing Fog
7:30 AM 23.0 °F - 21.2 °F 93% 30.63 in 0.5 mi South 2.3 mph - N/A Fog Light Freezing Fog
7:31 AM 21.2 °F - 21.2 °F 100% 30.63 in 0.5 mi South 2.3 mph - N/A Fog Light Freezing Fog
7:36 AM 21.2 °F - 21.2 °F 100% 30.63 in 0.5 mi South 2.3 mph - N/A Fog Light Freezing Fog
7:38 AM 21.2 °F - 21.2 °F 100% 30.63 in 0.2 mi South 2.3 mph - N/A Fog Light Freezing Fog
7:43 AM 21.2 °F - 21.2 °F 100% 30.63 in 0.2 mi SSE 2.3 mph - N/A Fog Light Freezing Fog
7:44 AM 21.2 °F - 21.2 °F 100% 30.63 in 0.2 mi SSE 2.3 mph - N/A Fog Light Freezing Fog
7:58 AM 21.7 °F - 21.0 °F 97% 30.66 in 0.2 mi ESE 2.3 mph - 0.00 in Fog Light Freezing Fog
8:23 AM 23.0 °F - 23.0 °F 100% 30.64 in 0.2 mi Calm Calm - N/A Fog Light Freezing Fog
8:34 AM 23.0 °F - 23.0 °F 100% 30.64 in 0.2 mi Calm Calm - N/A Fog Light Freezing Fog
8:40 AM 23.0 °F - 23.0 °F 100% 30.64 in 0.2 mi Calm Calm - N/A Fog Light Freezing Fog
8:55 AM 24.8 °F - 24.8 °F 100% 30.64 in 0.2 mi South 2.3 mph - N/A Fog Light Freezing Fog
8:58 AM 24.8 °F - 24.3 °F 98% 30.67 in 0.2 mi South 2.3 mph - N/A Fog Light Freezing Fog
9:03 AM 24.8 °F - 24.8 °F 100% 30.64 in 0.2 mi Calm Calm - N/A Fog Light Freezing Fog
9:09 AM 24.8 °F - 24.8 °F 100% 30.64 in 0.2 mi Calm Calm - N/A Fog Light Freezing Fog
9:14 AM 24.8 °F - 24.8 °F 100% 30.64 in 0.2 mi SE 1.2 mph - N/A Fog Light Freezing Fog
9:25 AM 26.6 °F - 26.6 °F 100% 30.64 in 0.2 mi Calm Calm - N/A Fog Light Freezing Fog
9:31 AM 28.4 °F - 28.4 °F 100% 30.64 in 0.2 mi Calm Calm - N/A Fog Light Freezing Fog
9:36 AM 28.4 °F - 26.6 °F 93% 30.64 in 0.2 mi Calm Calm - N/A Fog Light Freezing Fog
9:58 AM 26.6 °F - 26.6 °F 100% 30.67 in 0.2 mi SE 1.2 mph - N/A Fog Light Freezing Fog
10:08 AM 28.4 °F - 26.6 °F 93% 30.63 in 0.2 mi Calm Calm - N/A Fog Light Freezing Fog
10:40 AM 28.4 °F - 28.4 °F 100% 30.63 in 0.2 mi Calm Calm - N/A Fog Light Freezing Fog
10:58 AM 28.8 °F - 28.4 °F 99% 30.66 in 0.2 mi Calm Calm - N/A Fog Light Freezing Fog
11:08 AM 28.4 °F - 28.4 °F 100% 30.62 in 0.2 mi Calm Calm - N/A Fog Light Freezing Fog
11:13 AM 30.2 °F - 28.4 °F 93% 30.62 in 0.2 mi Calm Calm - N/A Fog Light Freezing Fog
11:58 AM 30.7 °F - 30.4 °F 99% 30.65 in 0.2 mi Calm Calm - N/A Fog Light Freezing Fog
12:08 PM 32.0 °F - 32.0 °F 100% 30.61 in 0.5 mi West 1.2 mph - N/A Fog Light Freezing Fog
12:13 PM 32.0 °F - 32.0 °F 100% 30.61 in 0.5 mi Calm Calm - N/A Fog Light Freezing Fog
12:23 PM 32.0 °F - 32.0 °F 100% 30.61 in 0.8 mi Calm Calm - N/A   Mist
12:28 PM 32.0 °F - 32.0 °F 100% 30.61 in 0.8 mi Calm Calm - N/A   Mist
12:38 PM 32.0 °F - 32.0 °F 100% 30.60 in 1.0 mi Calm Calm - N/A   Mist
12:43 PM 32.0 °F - 32.0 °F 100% 30.61 in 1.0 mi SE 1.2 mph - N/A   Mist
12:48 PM 32.0 °F - 32.0 °F 100% 30.60 in 1.2 mi Variable 2.3 mph - N/A   Overcast
12:53 PM 32.0 °F - 32.0 °F 100% 30.60 in 1.8 mi Calm Calm - N/A   Overcast
12:58 PM 32.7 °F - 32.4 °F 99% 30.63 in 2.0 mi Calm Calm - N/A   Mostly Cloudy
1:03 PM 32.0 °F - 32.0 °F 100% 30.60 in 2.5 mi SW 2.3 mph - N/A   Mostly Cloudy
1:08 PM 32.0 °F - 32.0 °F 100% 30.59 in 2.0 mi Variable 1.2 mph - N/A   Scattered Clouds
1:13 PM 32.0 °F - 32.0 °F 100% 30.59 in 2.5 mi SW 2.3 mph - N/A   Scattered Clouds
1:25 PM 33.8 °F - 33.8 °F 100% 30.59 in 3.0 mi WSW 2.3 mph - N/A   Partly Cloudy
1:58 PM 37.2 °F - 36.9 °F 99% 30.61 in 7.0 mi South 2.3 mph - N/A   Clear
2:58 PM 40.5 °F 37.3 °F 40.1 °F 99% 30.58 in 10.0 mi NE 4.6 mph - N/A   Clear
3:58 PM 40.5 °F 35.8 °F 34.3 °F 79% 30.58 in 10.0 mi North 6.9 mph - N/A   Clear
4:58 PM 37.8 °F - 33.4 °F 84% 30.57 in 10.0 mi Calm Calm - N/A   Clear
5:58 PM 33.6 °F - 32.7 °F 96% 30.57 in 9.0 mi Calm Calm - N/A   Clear
6:13 PM 32.0 °F - 32.0 °F 100% 30.55 in 9.0 mi Calm Calm - N/A   Clear
6:18 PM 32.0 °F - 32.0 °F 100% 30.55 in 9.0 mi Calm Calm - N/A   Clear
6:34 PM 30.2 °F - 30.2 °F 100% 30.55 in 8.0 mi Calm Calm - N/A   Clear
6:58 PM 30.4 °F - 30.0 °F 99% 30.58 in 6.0 mi SSE 1.2 mph - N/A   Clear
7:48 PM 28.4 °F - 28.4 °F 100% 30.54 in 3.0 mi Calm Calm - N/A   Clear
7:53 PM 28.4 °F 24.6 °F 28.4 °F 100% 30.54 in 1.8 mi South 3.5 mph - N/A   Clear
7:58 PM 28.8 °F 25.0 °F 28.6 °F 99% 30.57 in 1.5 mi South 3.5 mph - N/A   Clear
8:03 PM 28.4 °F 24.6 °F 28.4 °F 100% 30.54 in 1.0 mi South 3.5 mph - N/A   Clear
8:08 PM 28.4 °F - 28.4 °F 100% 30.53 in 1.5 mi SSE 2.3 mph - N/A   Clear
8:13 PM 26.6 °F - 26.6 °F 100% 30.53 in 2.5 mi SSE 2.3 mph - N/A   Clear
8:18 PM 28.4 °F - 26.6 °F 93% 30.53 in 3.0 mi SSE 1.2 mph - N/A   Clear
8:38 PM 28.4 °F - 28.4 °F 100% 30.53 in 2.5 mi Calm Calm - N/A   Clear
8:51 PM 26.6 °F - 26.6 °F 100% 30.53 in 2.5 mi SSE 1.2 mph - N/A   Clear
8:56 PM 26.6 °F - 26.6 °F 100% 30.53 in 1.8 mi South 2.3 mph - N/A   Clear
8:58 PM 26.2 °F - 26.1 °F 99% 30.56 in 1.5 mi South 2.3 mph - N/A   Clear
9:08 PM 26.6 °F - 26.6 °F 100% 30.53 in 1.8 mi South 2.3 mph - N/A   Clear
9:14 PM 28.4 °F 24.6 °F 28.4 °F 100% 30.53 in 2.5 mi South 3.5 mph - N/A   Clear
9:19 PM 26.6 °F 22.6 °F 26.6 °F 100% 30.52 in 2.0 mi South 3.5 mph - N/A   Clear
9:24 PM 26.6 °F - 24.8 °F 93% 30.52 in 1.5 mi SSE 2.3 mph - N/A   Clear
9:29 PM 26.6 °F - 24.8 °F 93% 30.52 in 2.5 mi SSE 1.2 mph - N/A   Clear
9:34 PM 26.6 °F - 26.6 °F 100% 30.52 in 5.0 mi South 2.3 mph - N/A   Clear
9:58 PM 25.5 °F - 25.2 °F 99% 30.55 in 6.0 mi Variable 1.2 mph - N/A   Clear
10:45 PM 24.8 °F - 24.8 °F 100% 30.51 in 1.8 mi Calm Calm - N/A   Clear
10:50 PM 26.6 °F - 26.6 °F 100% 30.51 in 1.0 mi Calm Calm - N/A   Clear
10:56 PM 24.8 °F - 24.8 °F 100% 30.51 in 1.0 mi South 1.2 mph - N/A   Clear
10:58 PM 25.3 °F - 25.0 °F 99% 30.54 in 1.0 mi South 1.2 mph - N/A   Clear
11:03 PM 24.8 °F - 24.8 °F 100% 30.51 in 0.8 mi Calm Calm - N/A   Clear
11:08 PM 24.8 °F - 24.8 °F 100% 30.51 in 0.5 mi Calm Calm - N/A Fog Light Freezing Fog
11:23 PM 24.8 °F - 23.0 °F 93% 30.51 in 0.5 mi South 1.2 mph - N/A Fog Light Freezing Fog
11:28 PM 23.0 °F - 23.0 °F 100% 30.51 in 1.2 mi SSW 2.3 mph - N/A   Clear
11:34 PM 23.0 °F - 23.0 °F 100% 30.51 in 6.0 mi SSE 2.3 mph - N/A   Clear
11:58 PM 24.8 °F - 23.0 °F 93% 30.55 in 8.0 mi Calm Calm - N/A   Clear